Martinsville, VA

7:07 PM EDT on June 27, 2017 (GMT -0400)
Blue Ridge

Weather History for KMTV - January, 2012

Change the Weather History Date:

Sunday, January 15, 2012

  Actual Average (KINT) Record (KINT)
Temperature  
Mean Temperature 33 °F -  
Max Temperature 42 °F 45 °F 68 °F (2007)
Min Temperature 24 °F 29 °F 11 °F (1969)
Degree Days  
Heating Degree Days 32    
Moisture  
Dew Point 22 °F    
Average Humidity 74    
Maximum Humidity 86    
Minimum Humidity 42    
Precipitation  
Precipitation 0.00 in - - ()
Sea Level Pressure  
Sea Level Pressure 30.50 in    
Wind  
Wind Speed 0 mph (NW)    
Max Wind Speed 4 mph    
Max Gust Speed -    
Visibility 10 miles    
Events      
Averages and records for this station are not official NWS values.
T = Trace of Precipitation, MM = Missing Value Source: NWS Daily Summary

Daily Weather History Graph

Daily Weather History Graph

Search for Another Location

Airport or City:

Trip Planner

Search our weather history database for the weather conditions in past years. The results will help you decide how hot, cold, wet, or windy it might be!

Date:

Astronomy

Jan. 15, 2012 Rise Set
Actual Time 7:31 AM EST 5:27 PM EST
Civil Twilight 7:03 AM EST 5:55 PM EST
Nautical Twilight 6:31 AM EST 6:27 PM EST
Astronomical Twilight 6:00 AM EST 6:58 PM EST
Moon No Moon Rise 11:01 AM EST (1/15)
Length of Visible Light 10h 52m
Length of Day
9h 55m
Waning Gibbous, 58% of the Moon is Illuminated
Jan 15
Waning Gibbous
Jan 16
Last Quarter
Jan 23
New
Jan 30
First Quarter
Feb 7
Full

Hourly Weather History & Observations

Time (EST) Temp. Windchill Dew Point Humidity Pressure Visibility Wind Dir Wind Speed Gust Speed Precip Events Conditions
4:55 PM 42.8 °F - 21.2 °F 42% 30.45 in 10.0 mi Calm Calm - N/A   Clear
5:15 PM 41.0 °F - 21.2 °F 45% 30.45 in 10.0 mi Calm Calm - N/A   Clear
5:35 PM 39.2 °F - 21.2 °F 49% 30.46 in 10.0 mi Calm Calm - N/A   Clear
5:55 PM 35.6 °F - 24.8 °F 65% 30.46 in 10.0 mi Calm Calm - N/A   Clear
6:15 PM 33.8 °F - 24.8 °F 70% 30.46 in 10.0 mi Calm Calm - N/A   Clear
6:35 PM 32.0 °F - 23.0 °F 69% 30.47 in 10.0 mi Calm Calm - N/A   Clear
6:55 PM 32.0 °F - 23.0 °F 69% 30.49 in 10.0 mi Calm Calm - N/A   Clear
7:15 PM 30.2 °F - 23.0 °F 75% 30.49 in 10.0 mi Calm Calm - N/A   Clear
7:35 PM 28.4 °F - 21.2 °F 74% 30.48 in 10.0 mi Calm Calm - N/A   Clear
7:55 PM 28.4 °F - 23.0 °F 80% 30.49 in 10.0 mi Calm Calm - N/A   Clear
8:15 PM 28.4 °F - 23.0 °F 80% 30.49 in 10.0 mi Calm Calm - N/A   Clear
8:35 PM 28.4 °F - 23.0 °F 80% 30.49 in 10.0 mi Calm Calm - N/A   Clear
8:55 PM 28.4 °F - 21.2 °F 74% 30.50 in 10.0 mi Calm Calm - N/A   Clear
9:15 PM 26.6 °F - 21.2 °F 80% 30.50 in 10.0 mi Calm Calm - N/A   Clear
9:55 PM 24.8 °F 20.5 °F 21.2 °F 86% 30.53 in 10.0 mi NW 3.5 mph - N/A   Clear
10:15 PM 24.8 °F - 21.2 °F 86% 30.53 in 10.0 mi Calm Calm - N/A   Clear
10:35 PM 24.8 °F - 21.2 °F 86% 30.53 in 10.0 mi Calm Calm - N/A   Clear
10:55 PM 24.8 °F - 21.2 °F 86% 30.54 in 10.0 mi Calm Calm - N/A   Clear
11:15 PM 24.8 °F 20.5 °F 21.2 °F 86% 30.54 in 10.0 mi NW 3.5 mph - N/A   Clear
11:35 PM 24.8 °F - 21.2 °F 86% 30.54 in 10.0 mi Calm Calm - N/A   Clear
11:55 PM 24.8 °F - 21.2 °F 86% 30.53 in 10.0 mi Calm Calm - N/A   Clear